This demonstration page uses our WeatherBlox Daily Observations layout. Learn more.

Left ArrowRight Arrow

Hourly Observations for March 16, 2018

Temp ( °F °C ) Dew Point ( °F °C ) Humidity (%) Winds ( mph kmh ) Pressure ( in mb ) Visibility ( mi km ) Precip ( " mm )
12:54 am 00:54 Clear 49 9.4 23 -5 36 36 E 17 28 29.72 1007 10 16 0.00 0.00
1:54 am 01:54 Mostly Cloudy 49 9.4 23 -5 36 36 E 21 33 29.71 1006 10 16 0.00 0.00
2:54 am 02:54 Cloudy 47 8.3 24 -4.4 41 41 E 22 35 29.68 1005 10 16 0.00 0.00
3:54 am 03:54 Cloudy with Nearby Thunderstorms 45 7.2 28 -2.2 52 52 ESE 18 30 29.71 1006 10 16 0.01 0.25
4:09 am 04:09 Cloudy with Light Rain 45 7.2 28 -2.2 52 52 ESE 22 35 29.71 1006 10 16 0.00 0.03
4:54 am 04:54 Cloudy with Light Rain 43 6.1 31 -0.6 63 63 E 20 31 29.71 1006 9 14 0.01 0.25
5:54 am 05:54 Cloudy with Light Rain 41 5 34 1.1 76 76 E 17 28 29.70 1006 6 10 0.04 1.02
6:54 am 06:54 Cloudy with Light Rain 40 4.4 34 1.1 79 79 E 23 37 29.69 1005 10 16 0.04 1.02
7:54 am 07:54 Cloudy 40 4.4 33 0.6 77 77 E 23 37 29.72 1006 10 16 0.00 0.03
8:54 am 08:54 Cloudy 39 3.9 33 0.6 79 79 E 25 41 29.70 1006 8 13 0.00 0.03
9:15 am 09:15 Cloudy with Light Rain 38 3.3 34 1.1 86 86 E 22 35 29.71 1006 6 10 0.01 0.25
9:42 am 09:42 Cloudy 38 3.3 33 0.6 83 83 E 23 37 29.71 1006 7 11 0.02 0.51
9:54 am 09:54 Cloudy with Light Rain 37 2.8 34 1.1 89 89 E 22 35 29.68 1005 4 6 0.02 0.51
10:54 am 10:54 Cloudy with Mist and Fog 37 2.8 34 1.1 89 89 ESE 18 30 29.70 1006 6 10 0.00 0.03
11:54 am 11:54 Cloudy 38 3.3 34 1.1 86 86 E 16 26 29.68 1005 7 11 0.00 0.00
12:13 pm 12:13 Cloudy 38 3.3 34 1.1 86 86 ESE 20 31 29.68 1005 7 11 0.00 0.00
12:54 pm 12:54 Cloudy with Mist and Fog 38 3.3 35 1.7 89 89 E 20 31 29.69 1006 6 10 0.00 0.00
1:54 pm 13:54 Cloudy with Mist and Fog 38 3.3 34 1.1 86 86 E 20 31 29.67 1005 6 10 0.00 0.00
2:54 pm 14:54 Cloudy with Light Rain 37 2.8 34 1.1 89 89 E 14 22 29.69 1005 6 10 0.00 0.03
3:54 pm 15:54 Cloudy with Mist and Fog 37 2.8 34 1.1 89 89 E 14 22 29.68 1005 4 6 0.00 0.03
4:54 pm 16:54 Cloudy with Mist and Fog 37 2.8 34 1.1 89 89 E 20 31 29.69 1005 5 8 0.00 0.03
5:54 pm 17:54 Cloudy with Mist and Fog 37 2.8 34 1.1 89 89 E 16 26 29.71 1006 3 5 0.03 0.76
6:11 pm 18:11 Cloudy with Mist and Fog 37 2.8 35 1.7 93 93 E 14 22 29.71 1006 3 4 0.04 1.02
6:36 pm 18:36 Cloudy with Light Rain 37 2.8 35 1.7 93 93 ENE 10 17 29.74 1007 4 6 0.08 2.03
6:54 pm 18:54 Cloudy with Light Rain 37 2.8 34 1.1 89 89 ENE 13 20 29.73 1007 5 8 0.09 2.29
7:45 pm 19:45 Cloudy with Light Rain 36 2.2 34 1.1 93 93 NE 13 20 29.77 1008 3 5 0.05 1.27
7:54 pm 19:54 Cloudy with Heavy Rain 35 1.7 33 0.6 93 93 NE 14 22 29.75 1008 2 3 0.09 2.29
8:05 pm 20:05 Cloudy with Rain 35 1.7 33 0.6 93 93 NE 13 20 29.77 1008 3 5 0.05 1.27
8:12 pm 20:12 Cloudy with Light Rain 35 1.7 33 0.6 93 93 NE 12 19 29.77 1008 4 6 0.06 1.52
8:28 pm 20:28 Cloudy with Mist and Fog 35 1.7 33 0.6 93 93 NNE 12 19 29.80 1009 6 10 0.07 1.78
8:54 pm 20:54 Cloudy with Light Rain 35 1.7 33 0.6 93 93 NNE 12 19 29.79 1009 5 8 0.07 1.78
9:05 pm 21:05 Cloudy with Mist and Fog 35 1.7 33 0.6 93 93 NNE 12 19 29.80 1009 5 8 0.00 0.03
9:40 pm 21:40 Cloudy with Mist and Fog 35 1.7 33 0.6 93 93 NNW 12 19 29.85 1011 4 6 0.00 0.03
9:54 pm 21:54 Cloudy with Mist and Fog 35 1.7 33 0.6 93 93 NNW 10 17 29.84 1011 5 8 0.00 0.03
10:36 pm 22:36 Cloudy with Light Wintry Mix 34 1.1 33 0.6 97 97 N 14 22 29.88 1012 3 4 0.00 0.03
10:54 pm 22:54 Cloudy with Light Wintry Mix 34 1.1 32 0 92 92 N 14 22 29.85 1011 3 4 0.00 0.03
11:05 pm 23:05 Cloudy with Mist and Fog 34 1.1 32 0 92 92 NNE 13 20 29.88 1012 3 5 0.00 0.03
11:54 pm 23:54 Cloudy with Mist and Fog 34 1.1 32 0 92 92 N 12 19 29.86 1011 6 10 0.00 0.03

Powered by AerisWeather